Weather History for KTDZ - June, 2014

Change the Weather History Date:

Monday, June 9, 2014

  Actual Average (KTOL) Record (KTOL)
Temperature  
Mean Temperature 67 °F 68 °F  
Max Temperature 79 °F 79 °F 95 °F (1914)
Min Temperature 57 °F 57 °F 38 °F (1988)
Degree Days  
Heating Degree Days 0 2  
Month to date heating degree days 22  
Since 1 June heating degree days 22  
Since 1 July heating degree days 6132  
Cooling Degree Days 2 4  
Month to date cooling degree days 33  
Year to date cooling degree days 86  
Since 1 June cooling degree days 33  
Growing Degree Days 17 (Base 50)    
Moisture  
Dew Point 53 °F    
Average Humidity 62    
Maximum Humidity 83    
Minimum Humidity 34    
Precipitation  
Precipitation 0.00 in 0.12 in - ()
Month to date precipitation 1.11  
Year to date precipitation 14.48  
Snow  
Snow 0.00 in 0.00 in - ()
Month to date snowfall 0.0  
Since 1 June snowfall 0.0  
Since 1 July snowfall 37.6  
Snow Depth -    
Sea Level Pressure  
Sea Level Pressure 29.98 in    
Wind  
Wind Speed 4 mph (NE)    
Max Wind Speed 8 mph    
Max Gust Speed -    
Visibility 10 miles    
Events      
T = Trace of Precipitation, MM = Missing Value Source: NWS Daily Summary

Daily Weather History Graph

Daily Weather History Graph

Search for Another Location

Airport or City:

Trip Planner

Search our weather history database for the weather conditions in past years. The results will help you decide how hot, cold, wet, or windy it might be!

Date:

Astronomy

Jun. 09, 2014 Rise Set
Actual Time 5:59 AM EDT 9:06 PM EDT
Civil Twilight 5:25 AM EDT 9:40 PM EDT
Nautical Twilight 4:42 AM EDT 10:24 PM EDT
Astronomical Twilight 3:51 AM EDT 11:15 PM EDT
Moon 5:24 PM EDT (6/9) 3:29 AM EDT (6/9)
Length of Visible Light 16h 14m
Length of Day
15h 07m
Waxing Gibbous, 85% of the Moon is Illuminated
Jun 9
Waxing Gibbous
Jun 13
Full
Jun 19
Last Quarter
Jun 27
New
Jul 5
First Quarter

Hourly Weather History & Observations

Time (EDT) Temp. Dew Point Humidity Pressure Visibility Wind Dir Wind Speed Gust Speed Precip Events Conditions
12:53 AM 63.0 °F 55.0 °F 75% 30.00 in 10.0 mi ENE 5.8 mph - N/A   Clear
1:53 AM 62.1 °F 53.1 °F 72% 30.00 in 10.0 mi ENE 4.6 mph - N/A   Clear
2:53 AM 60.1 °F 53.1 °F 78% 30.00 in 10.0 mi NNE 3.5 mph - N/A   Clear
3:53 AM 57.9 °F 52.0 °F 81% 29.99 in 10.0 mi Calm Calm - N/A   Clear
4:53 AM 59.0 °F 52.0 °F 78% 29.99 in 10.0 mi Calm Calm - N/A   Clear
5:53 AM 57.9 °F 52.0 °F 81% 29.99 in 10.0 mi North 3.5 mph - N/A   Clear
6:53 AM 59.0 °F 54.0 °F 83% 30.00 in 9.0 mi North 5.8 mph - N/A   Clear
7:53 AM 61.0 °F 55.0 °F 81% 30.00 in 9.0 mi Variable 3.5 mph - N/A   Clear
8:53 AM 64.9 °F 57.9 °F 78% 30.02 in 10.0 mi NNE 3.5 mph - N/A   Clear
9:53 AM 66.9 °F 57.9 °F 73% 30.02 in 10.0 mi North 5.8 mph - N/A   Scattered Clouds
11:53 AM 71.1 °F 57.9 °F 63% 30.00 in 10.0 mi NNE 5.8 mph - N/A   Clear
12:53 PM 73.0 °F 57.0 °F 57% 30.00 in 10.0 mi Variable 3.5 mph - N/A   Clear
1:53 PM 75.9 °F 54.0 °F 46% 29.99 in 10.0 mi Variable 4.6 mph - N/A   Clear
2:53 PM 75.9 °F 55.0 °F 48% 29.98 in 10.0 mi Calm Calm - N/A   Clear
4:53 PM 77.0 °F 46.9 °F 34% 29.94 in 10.0 mi NE 8.1 mph - N/A   Clear
5:53 PM 77.0 °F 48.0 °F 36% 29.94 in 10.0 mi NE 8.1 mph - N/A   Clear
6:53 PM 77.0 °F 46.9 °F 34% 29.95 in 10.0 mi ENE 8.1 mph - N/A   Clear
7:53 PM 75.0 °F 46.9 °F 37% 29.94 in 10.0 mi ENE 6.9 mph - N/A   Clear
8:53 PM 71.1 °F 50.0 °F 47% 29.94 in 10.0 mi NE 4.6 mph - N/A   Clear
9:53 PM 69.1 °F 52.0 °F 54% 29.95 in 10.0 mi Calm Calm - N/A   Clear
10:53 PM 64.9 °F 52.0 °F 63% 29.95 in 10.0 mi East 3.5 mph - N/A   Clear
11:53 PM 64.0 °F 52.0 °F 65% 29.95 in 10.0 mi Calm Calm - N/A   Clear